Погода в Магадане

Погода в Магадане : погода сейчас, прогноз погоды и архив. Всё, что Вы хотите узнать о погоде в Магадане!

Хотите узнать прогноз погоды в Магадане? Тогда Вам сюда: Погода в Магадане

Поиск расширенной информации на нашем сайте:

Другие новости

Новости СМИ2

Главная страница сайта

Новости сайта

03.07.2017

Напоминаем, что на нашем специализированном сайте Метеоцентр.Азия вы можете получить высокодетализированные автоматические прогнозы погоды по пунктам России, СНГ и мира в авиационном формате (включающие направление и скорость ветра, видимость, явления погоды, количество и форму облачности, нижнюю и верхнюю границу облачности).

Рекомендуем: Дисконтная программа в магазине www.minisoft.com.ua.

Погода в Магадане - сегодня

Время (UTC), дата Ветер
(°,м/с) 
Видим.   Явления Облачность Т
(°С)
Тd
(°С)
f(%) Тe
(°С)
Pmin
(гПа)
dP
(гПа)
Po
(мм)
O2
(г/м3)
Тmin Tmax R s Состояние
почвы
15 18.09.17 080 (В) 0200 м  слаб. морось{туман}  ?/?  
+10.3 +10.2 99 +11  1012.2  0.1  749  289           
18 18.09.17 070 (В) 0500 м  туман{морось}  ?/?  
+10.1 +10.1 100 +11  1012.4  0.2  749  289           
00 19.09.17 050 (СВ) 4000 м  слаб. морось{ливн. осадки}  10/10 200 м 
[St]
+10.1 +10 99 +10  1012.9  749  289           
03 19.09.17 040 (СВ) 4000 м  слаб. ливневой дождь{морось}  10/10 200 м кучево-дожд. 
[Cb cap]
+9.9 +9.6 98 +10  1012.7  0.1  749  290           
06 19.09.17 070 (В) 4000 м  ливневой дождь{морось}  10/10 200 м кучево-дожд. 
[Cb cap]
+9.3 +9 98 +9  1013.4  0.6  749  290           
09 19.09.17 080 (В) 4000 м  слаб. ливневой дождь  10/10 200 м кучево-дожд. 
[Cb cap]
+8.4 +8 97 +8  1014.2  0.8  750  292    +10.5     
12 19.09.17 070 (В) 20000 м  {ливн. осадки}  10/10 200 м кучево-дожд. 
[Cb calv]
+7.4 +6.2 92 +7  1014.5  0.2  750  293           
15 19.09.17 080 (В) 20000 м    9/6 300 м кучево-дожд., средняя, верхняя 
[Cb calv|Ac trans|Ci fib]
+6.9 +4.6 85 +6  1014.6  750  294           
18 19.09.17 070 (В) 20000 м    9/8 300 м кучево-дожд., средняя 
[Cb calv|Ac trans]
+7.3 +3.9 79 +6  1014.5  -0.2  750  294           
00 20.09.17 080 (В) 5-10{13}  20000 м    9/9 300 м кучево-дожд. 
[Cb calv]
+8.7 +4.1 73 +7  1013.5  -0.4  750  292           
03 20.09.17 070 (В) 6-12{12}  20000 м    9/9 600 м кучево-дожд., средняя 
[Cb calv|Ac trans]
+9.8 +3.8 66 +8  1012.3  -1.1  749  291           
06 20.09.17 080 (В) 6-13{13}  20000 м    9/9 600 м кучево-дожд., средняя 
[Cb calv|Ac trans]
+10 +3.2 63 +8  1010.7  -1.6  747  290           
09 20.09.17 080 (В) 7-16{16}  20000 м    9/9 600 м кучево-дожд. 
[Cb calv]
+8.8 -1.6 48 +7  1010.8  0.1  748  292    +10.5       
12 20.09.17 070 (В) 4{16}  20000 м    9/9 600 м кучево-дожд. 
[Cb calv]
+8.2 -0.3 55 +7  1011.7  0.9  748  293           
15 20.09.17 070 (В) 5{10}  20000 м  слаб. ливневой дождь  9/9 600 м кучево-дожд. 
[Cb cap]
+6.8 +2.9 76 +5  1010.5  -1.3  747  293           
18 20.09.17 070 (В) 6-10{11}  20000 м  в посл. час ливневой дождь  10/10 600 м кучево-дожд. 
[Cb calv]
+7.4 +2.6 72 +5  1010  -0.5  747  293           
21 20.09.17 060 (СВ) 5{11}  20000 м  слаб. ливневой дождь  9/8 600 м кучево-дожд., средняя 
[Cb cap|Ac trans]
+7.6 +3.9 77 +6  1009.7  -0.3  747  292  +6.7    0.3     
00 21.09.17 070 (В) 7-12{14}  20000 м  слаб. ливневой дождь  10/8 300 м кучево-дожд., средняя 
[Cb cap|Ac As]
+7.9 +5.2 83 +6  1008.8  -0.8  746  291           
03 21.09.17 070 (В) 5-10{13}  10 км  ливневой дождь  10/10 300 м кучево-дожд. 
[Cb cap]
+8.1 +6.8 91 +7  1008.6  -0.2  746  291           
06 21.09.17 080 (В) 5-10{11}  10 км  слаб. ливневой дождь  10/10 300 м кучево-дожд. 
[Cb cap]
+8.3 +7.1 92 +7  1008.1  -0.5  746  290           
09 21.09.17 080 (В) 4{11}  10 км  ливневой дождь  10/10 300 м кучево-дожд. 
[Cb cap]
+8.2 +7.1 93 +7  1008.4  0.3  746  291    +8.5  10     
12 21.09.17 070 (В) 5{11}  4000 м  ливневой дождь  10/10 300 м кучево-дожд. 
[Cb cap]
+8.3 +7.3 93 +7  1008.3  0.1  746  290           
15 21.09.17 050 (СВ) 4{11}  10 км  слаб. ливневой дождь  10/10 300 м кучево-дожд. 
[Cb cap]
+8.6 +7.2 91 +7  1008  -0.3  745  290           
18 21.09.17 070 (В) 5{11}  4000 м  ливневой дождь  10/10 300 м кучево-дожд. 
[Cb cap]
+8.8 +7.6 92 +7  1007.1  -0.8  745  289           
21 21.09.17 090 (В) 6-11{12}  10 км  слаб. ливневой дождь  10/10 300 м кучево-дожд. 
[Cb cap]
+9 +7.8 92 +7  1007.1  745  289  +8.2    12     
Время (UTC), дата Ветер
(°,м/с) 
Видим.   Явления Облачность Т
(°С)
Тd
(°С)
f(%) Тe
(°С)
Pmin
(гПа)
dP
(гПа)
Po
(мм)
O2
(г/м3)
Тmin Tmax R s Состояние
почвы

Для получения пояснительной информации подведите курсор к названию столбца.

ПОГОДА в Магадане - архив

Всё, что Вы хотите узнать о погоде в Магадане - удобно и подробно!

Выберите нужную дату (начиная с 1 января 2015* года) и нажмите кнопку "Найти".
Будут отображены архивные сводки погоды по пункту Магадан, начиная с указанной даты.


Отображать данные в формате CSV (для использования в таблицах Excel)


Внимание! Наш архив погоды предназначен исключительно для личного некоммерческого использования в познавательных целях. Если Вам необходимы официальные справки о состоянии погоды (для производственных, юридических, коммерческих и т.п. целей), обращайтесь в органы Росгидромета.

*Примечание: данная дата относится к архиву по метеостанциям СССР (Россия, СНГ, Балтия).
Архив по метеостанциям Зарубежной Европы и Азии (кроме Китая) хранится 10 дней, по другим регионам земного шара (Китай, Африка, Америка, Австралия, Океания) - 1 день.

Магадан - район местоположения метеостанции


Название, широта, долгота, высота метеостанции:
Магадан (город) 59.6°ш. 150.8°д. 116 м над ур. моря [Российская Федерация]

Дополнительная информация

В oтличие oт бoльшинства пoгoдных сайтoв мы публикуем пoдрoбную метеoинфoрмацию в детальнoм прoфессиoнальнoм фoрмате.

Характеристики температуры и влажнoсти вoздуха измеряются на высoте 2 м в тени вдали oт зданий и деревьев.
Скoрoсть ветра измеряется на высoте 10 м (на урoвне рoста челoвека скoрoсть ветра ниже в 1.5-2 раза). Если метеoстанция нахoдится в гoрoде или в лесу, тo скoрoсть ветра занижена на 2-4 м/с пo сравнению с oткрытым местoм. Скoрoсть ветра над акватoриями крупных рек и oзёр, а также на вершинах хoлмoв на 2-5 м/с выше, чем в oбычных услoвиях.
Атмoсфернoе давление в разных тoчках местнoсти мoжет значительнo oтличаться oт давления на метеoстанции, в зависимoсти oт услoвий рельефа (при пoдъёме на 10 м давление пoнижается примернo на 1 мм рт.ст.).